Year,Month,Day,Hour,Minute,Value (Times are PST for temperature in C)
2022,07,26,00,00,19.70
2022,07,26,00,01,19.70
2022,07,26,00,02,19.70
2022,07,26,00,03,19.70
2022,07,26,00,04,19.70
2022,07,26,00,05,19.70
2022,07,26,00,06,19.70
2022,07,26,00,07,19.70
2022,07,26,00,08,19.60
2022,07,26,00,09,19.60
2022,07,26,00,10,19.60
2022,07,26,00,11,19.60
2022,07,26,00,12,19.60
2022,07,26,00,13,19.50
2022,07,26,00,14,19.50
2022,07,26,00,15,19.50
2022,07,26,00,16,19.40
2022,07,26,00,17,19.40
2022,07,26,00,18,19.40
2022,07,26,00,19,19.40
2022,07,26,00,20,19.40
2022,07,26,00,21,19.40
2022,07,26,00,22,19.40
2022,07,26,00,23,19.40
2022,07,26,00,24,19.40
2022,07,26,00,25,19.40
2022,07,26,00,26,19.40
2022,07,26,00,27,19.40
2022,07,26,00,28,19.40
2022,07,26,00,29,19.40
2022,07,26,00,30,19.40
2022,07,26,00,31,19.40
2022,07,26,00,32,19.40
2022,07,26,00,33,19.40
2022,07,26,00,34,19.30
2022,07,26,00,35,19.30
2022,07,26,00,36,19.30
2022,07,26,00,37,19.30
2022,07,26,00,38,19.20
2022,07,26,00,39,19.30
2022,07,26,00,40,19.30
2022,07,26,00,41,19.30
2022,07,26,00,42,19.30
2022,07,26,00,43,19.30
2022,07,26,00,44,19.30
2022,07,26,00,45,19.20
2022,07,26,00,46,19.20
2022,07,26,00,47,19.20
2022,07,26,00,48,19.20
2022,07,26,00,49,19.20
2022,07,26,00,50,19.20
2022,07,26,00,51,19.20
2022,07,26,00,52,19.20
2022,07,26,00,53,19.20
2022,07,26,00,54,19.20
2022,07,26,00,55,19.20
2022,07,26,00,56,19.20
2022,07,26,00,57,19.20
2022,07,26,00,58,19.20
2022,07,26,00,59,19.20
2022,07,26,01,00,19.20
2022,07,26,01,01,19.20
2022,07,26,01,02,19.20
2022,07,26,01,03,19.20
2022,07,26,01,04,19.20
2022,07,26,01,05,19.20
2022,07,26,01,06,19.20
2022,07,26,01,07,19.20
2022,07,26,01,08,19.20
2022,07,26,01,09,19.30
2022,07,26,01,10,19.30
2022,07,26,01,11,19.30
2022,07,26,01,12,19.30
2022,07,26,01,13,19.30
2022,07,26,01,14,19.30
2022,07,26,01,15,19.30
2022,07,26,01,16,19.20
2022,07,26,01,17,19.20
2022,07,26,01,18,19.20
2022,07,26,01,19,19.20
2022,07,26,01,20,19.20
2022,07,26,01,21,19.20
2022,07,26,01,22,19.20
2022,07,26,01,23,19.20
2022,07,26,01,24,19.20
2022,07,26,01,25,19.20
2022,07,26,01,26,19.20
2022,07,26,01,27,19.20
2022,07,26,01,28,19.20
2022,07,26,01,29,19.20
2022,07,26,01,30,19.20
2022,07,26,01,31,19.20
2022,07,26,01,32,19.30
2022,07,26,01,33,19.30
2022,07,26,01,34,19.30
2022,07,26,01,35,19.30
2022,07,26,01,36,19.40
2022,07,26,01,37,19.40
2022,07,26,01,38,19.40
2022,07,26,01,39,19.40
2022,07,26,01,40,19.40
2022,07,26,01,41,19.40
2022,07,26,01,42,19.40
2022,07,26,01,43,19.40
2022,07,26,01,44,19.40
2022,07,26,01,45,19.40
2022,07,26,01,46,19.40
2022,07,26,01,47,19.40
2022,07,26,01,48,19.40
2022,07,26,01,49,19.40
2022,07,26,01,50,19.40
2022,07,26,01,51,19.40
2022,07,26,01,52,19.30
2022,07,26,01,53,19.30
2022,07,26,01,54,19.30
2022,07,26,01,55,19.30
2022,07,26,01,56,19.30
2022,07,26,01,57,19.30
2022,07,26,01,58,19.30
2022,07,26,01,59,19.30
2022,07,26,02,00,19.30
2022,07,26,02,01,19.20
2022,07,26,02,02,19.20
2022,07,26,02,03,19.30
2022,07,26,02,04,19.30
2022,07,26,02,05,19.20
2022,07,26,02,06,19.30
2022,07,26,02,07,19.30
2022,07,26,02,08,19.30
2022,07,26,02,09,19.20
2022,07,26,02,10,19.20
2022,07,26,02,11,19.20
2022,07,26,02,12,19.20
2022,07,26,02,13,19.20
2022,07,26,02,14,19.20
2022,07,26,02,15,19.20
2022,07,26,02,16,19.20
2022,07,26,02,17,19.20
2022,07,26,02,18,19.20
2022,07,26,02,19,19.20
2022,07,26,02,20,19.20
2022,07,26,02,21,19.20
2022,07,26,02,22,19.20
2022,07,26,02,23,19.20
2022,07,26,02,24,19.20
2022,07,26,02,25,19.20
2022,07,26,02,26,19.20
2022,07,26,02,27,19.20
2022,07,26,02,28,19.20
2022,07,26,02,29,19.10
2022,07,26,02,30,19.10
2022,07,26,02,31,19.10
2022,07,26,02,32,19.10
2022,07,26,02,33,19.10
2022,07,26,02,34,19.10
2022,07,26,02,35,19.10
2022,07,26,02,36,19.10
2022,07,26,02,37,19.10
2022,07,26,02,38,19.10
2022,07,26,02,39,19.10
2022,07,26,02,40,19.10
2022,07,26,02,41,19.10
2022,07,26,02,42,19.10
2022,07,26,02,43,19.10
2022,07,26,02,44,19.10
2022,07,26,02,45,19.10
2022,07,26,02,46,19.10
2022,07,26,02,47,19.10
2022,07,26,02,48,19.10
2022,07,26,02,49,19.10
2022,07,26,02,50,19.10
2022,07,26,02,51,19.10
2022,07,26,02,52,19.10
2022,07,26,02,53,19.10
2022,07,26,02,54,19.10
2022,07,26,02,55,19.10
2022,07,26,02,56,19.10
2022,07,26,02,57,19.10
2022,07,26,02,58,19.10
2022,07,26,02,59,19.10
2022,07,26,03,00,19.00
2022,07,26,03,01,19.00
2022,07,26,03,02,19.00
2022,07,26,03,03,19.00
2022,07,26,03,04,19.00
2022,07,26,03,05,18.90
2022,07,26,03,06,18.90
2022,07,26,03,07,18.90
2022,07,26,03,08,18.90
2022,07,26,03,09,18.90
2022,07,26,03,10,18.90
2022,07,26,03,11,18.90
2022,07,26,03,12,19.00
2022,07,26,03,13,19.00
2022,07,26,03,14,19.00
2022,07,26,03,15,19.00
2022,07,26,03,16,19.10
2022,07,26,03,17,19.10
2022,07,26,03,18,19.10
2022,07,26,03,19,19.10
2022,07,26,03,20,19.10
2022,07,26,03,21,19.10
2022,07,26,03,22,19.20
2022,07,26,03,23,19.20
2022,07,26,03,24,19.20
2022,07,26,03,25,19.20
2022,07,26,03,26,19.20
2022,07,26,03,27,19.20
2022,07,26,03,28,19.20
2022,07,26,03,29,19.20
2022,07,26,03,30,19.20
2022,07,26,03,31,19.20
2022,07,26,03,32,19.20
2022,07,26,03,33,19.20
2022,07,26,03,34,19.10
2022,07,26,03,35,19.10
2022,07,26,03,36,19.10
2022,07,26,03,37,19.10
2022,07,26,03,38,19.10
2022,07,26,03,39,19.10
2022,07,26,03,40,19.10
2022,07,26,03,41,19.10
2022,07,26,03,42,19.10
2022,07,26,03,43,19.10
2022,07,26,03,44,19.10
2022,07,26,03,45,19.10
2022,07,26,03,46,19.10
2022,07,26,03,47,19.10
2022,07,26,03,48,19.10
2022,07,26,03,49,19.00
2022,07,26,03,50,19.00
2022,07,26,03,51,19.00
2022,07,26,03,52,19.00
2022,07,26,03,53,19.00
2022,07,26,03,54,18.90
2022,07,26,03,55,18.90
2022,07,26,03,56,18.90
2022,07,26,03,57,18.90
2022,07,26,03,58,18.90
2022,07,26,03,59,18.90
2022,07,26,04,00,18.90
2022,07,26,04,01,18.90
2022,07,26,04,02,18.90
2022,07,26,04,03,18.90
2022,07,26,04,04,18.90
2022,07,26,04,08,18.90
2022,07,26,04,09,18.90
2022,07,26,04,10,18.90
2022,07,26,04,11,18.90
2022,07,26,04,12,18.90
2022,07,26,04,13,18.90
2022,07,26,04,14,18.90
2022,07,26,04,15,18.90
2022,07,26,04,16,18.90
2022,07,26,04,17,18.90
2022,07,26,04,18,19.00
2022,07,26,04,19,19.00
2022,07,26,04,20,19.00
2022,07,26,04,21,19.10
2022,07,26,04,22,19.10
2022,07,26,04,23,19.10
2022,07,26,04,24,19.10
2022,07,26,04,25,19.00
2022,07,26,04,26,19.00
2022,07,26,04,27,19.00
2022,07,26,04,28,19.00
2022,07,26,04,29,18.90
2022,07,26,04,30,18.90
2022,07,26,04,31,18.90
2022,07,26,04,32,18.90
2022,07,26,04,33,18.90
2022,07,26,04,34,18.80
2022,07,26,04,35,18.80
2022,07,26,04,36,18.80
2022,07,26,04,37,18.80
2022,07,26,04,38,18.80
2022,07,26,04,39,18.80
2022,07,26,04,40,18.80
2022,07,26,04,41,18.80
2022,07,26,04,42,18.80
2022,07,26,04,43,18.80
2022,07,26,04,44,18.80
2022,07,26,04,45,18.80
2022,07,26,04,46,18.80
2022,07,26,04,47,18.80
2022,07,26,04,48,18.80
2022,07,26,04,49,18.80
2022,07,26,04,50,18.90
2022,07,26,04,51,18.90
2022,07,26,04,52,19.00
2022,07,26,04,53,19.00
2022,07,26,04,54,19.10
2022,07,26,04,55,19.10
2022,07,26,04,56,19.10
2022,07,26,04,57,19.20
2022,07,26,04,58,19.20
2022,07,26,04,59,19.20
2022,07,26,05,00,19.10
2022,07,26,05,01,19.00
2022,07,26,05,02,19.00
2022,07,26,05,03,18.90
2022,07,26,05,04,18.80
2022,07,26,05,05,18.80
2022,07,26,05,06,18.80
2022,07,26,05,07,18.80
2022,07,26,05,08,18.80
2022,07,26,05,09,18.70
2022,07,26,05,10,18.70
2022,07,26,05,11,18.70
2022,07,26,05,12,18.70
2022,07,26,05,13,18.60
2022,07,26,05,14,18.50
2022,07,26,05,15,18.50
2022,07,26,05,16,18.40
2022,07,26,05,17,18.40
2022,07,26,05,18,18.30
2022,07,26,05,19,18.30
2022,07,26,05,20,18.30
2022,07,26,05,21,18.30
2022,07,26,05,22,18.30
2022,07,26,05,23,18.30
2022,07,26,05,24,18.30
2022,07,26,05,25,18.30
2022,07,26,05,26,18.30
2022,07,26,05,27,18.30
2022,07,26,05,28,18.30
2022,07,26,05,29,18.30
2022,07,26,05,30,18.30
2022,07,26,05,31,18.30
2022,07,26,05,32,18.30
2022,07,26,05,33,18.30
2022,07,26,05,34,18.30
2022,07,26,05,35,18.30
2022,07,26,05,36,18.40
2022,07,26,05,37,18.40
2022,07,26,05,38,18.40
2022,07,26,05,39,18.40
2022,07,26,05,40,18.40
2022,07,26,05,41,18.40
2022,07,26,05,42,18.40
2022,07,26,05,43,18.40
2022,07,26,05,44,18.40
2022,07,26,05,45,18.30
2022,07,26,05,46,18.30
2022,07,26,05,47,18.30
2022,07,26,05,48,18.30
2022,07,26,05,49,18.30
2022,07,26,05,50,18.30
2022,07,26,05,51,18.30
2022,07,26,05,52,18.30
2022,07,26,05,53,18.30
2022,07,26,05,54,18.30
2022,07,26,05,55,18.40
2022,07,26,05,56,18.40
2022,07,26,05,57,18.40
2022,07,26,05,58,18.40
2022,07,26,05,59,18.40
2022,07,26,06,00,18.40
2022,07,26,06,01,18.40
2022,07,26,06,02,18.40
2022,07,26,06,03,18.40
2022,07,26,06,04,18.40
2022,07,26,06,05,18.40
2022,07,26,06,06,18.40
2022,07,26,06,07,18.40
2022,07,26,06,08,18.50
2022,07,26,06,09,18.50
2022,07,26,06,10,18.50
2022,07,26,06,11,18.60
2022,07,26,06,12,18.60
2022,07,26,06,13,18.60
2022,07,26,06,14,18.60
2022,07,26,06,15,18.60
2022,07,26,06,16,18.60
2022,07,26,06,17,18.60
2022,07,26,06,18,18.50
2022,07,26,06,19,18.50
2022,07,26,06,20,18.50
2022,07,26,06,21,18.50
2022,07,26,06,22,18.60
2022,07,26,06,23,18.60
2022,07,26,06,24,18.60
2022,07,26,06,25,18.70
2022,07,26,06,26,18.70
2022,07,26,06,27,18.70
2022,07,26,06,28,18.70
2022,07,26,06,29,18.70
2022,07,26,06,30,18.70
2022,07,26,06,31,18.70
2022,07,26,06,32,18.70
2022,07,26,06,33,18.70
2022,07,26,06,34,18.70
2022,07,26,06,35,18.70
2022,07,26,06,36,18.70
2022,07,26,06,37,18.70
2022,07,26,06,38,18.80
2022,07,26,06,39,18.80
2022,07,26,06,40,18.80
2022,07,26,06,41,18.80
2022,07,26,06,42,18.90
2022,07,26,06,43,19.00
2022,07,26,06,44,19.00
2022,07,26,06,45,19.10
2022,07,26,06,46,19.20
2022,07,26,06,47,19.20
2022,07,26,06,48,19.30
2022,07,26,06,49,19.40
2022,07,26,06,50,19.50
2022,07,26,06,51,19.50
2022,07,26,06,52,19.60
2022,07,26,06,53,19.70
2022,07,26,06,54,19.80
2022,07,26,06,55,19.90
2022,07,26,06,56,19.90
2022,07,26,06,57,20.00
2022,07,26,06,58,20.10
2022,07,26,06,59,20.10
2022,07,26,07,00,20.20
2022,07,26,07,01,20.30
2022,07,26,07,02,20.30
2022,07,26,07,03,20.40
2022,07,26,07,04,20.40
2022,07,26,07,05,20.40
2022,07,26,07,06,20.50
2022,07,26,07,07,20.60
2022,07,26,07,08,20.60
2022,07,26,07,09,20.70
2022,07,26,07,10,20.70
2022,07,26,07,11,20.80
2022,07,26,07,12,20.90
2022,07,26,07,13,20.90
2022,07,26,07,14,21.00
2022,07,26,07,15,21.10
2022,07,26,07,16,21.20
2022,07,26,07,17,21.20
2022,07,26,07,18,21.30
2022,07,26,07,19,21.30
2022,07,26,07,20,21.40
2022,07,26,07,21,21.40
2022,07,26,07,22,21.50
2022,07,26,07,23,21.60
2022,07,26,07,24,21.70
2022,07,26,07,25,21.70
2022,07,26,07,26,21.80
2022,07,26,07,27,21.80
2022,07,26,07,28,21.90
2022,07,26,07,29,21.90
2022,07,26,07,30,22.00
2022,07,26,07,31,22.00
2022,07,26,07,32,22.10
2022,07,26,07,33,22.10
2022,07,26,07,34,22.20
2022,07,26,07,35,22.20
2022,07,26,07,36,22.20
2022,07,26,07,37,22.20
2022,07,26,07,38,22.30
2022,07,26,07,39,22.30
2022,07,26,07,40,22.40
2022,07,26,07,41,22.40
2022,07,26,07,42,22.50
2022,07,26,07,43,22.60
2022,07,26,07,44,22.60
2022,07,26,07,45,22.70
2022,07,26,07,46,22.80
2022,07,26,07,47,22.80
2022,07,26,07,48,22.90
2022,07,26,07,49,23.00
2022,07,26,07,50,23.10
2022,07,26,07,51,23.20
2022,07,26,07,52,23.20
2022,07,26,07,53,23.30
2022,07,26,07,54,23.40
2022,07,26,07,55,23.50
2022,07,26,07,56,23.50
2022,07,26,07,57,23.60
2022,07,26,07,58,23.60
2022,07,26,07,59,23.70
2022,07,26,08,00,23.70
2022,07,26,08,01,23.70
2022,07,26,08,02,23.80
2022,07,26,08,03,23.80
2022,07,26,08,04,23.80
2022,07,26,08,05,23.90
2022,07,26,08,06,23.90
2022,07,26,08,07,23.90
2022,07,26,08,08,23.90
2022,07,26,08,09,24.00
2022,07,26,08,10,24.00
2022,07,26,08,11,24.00
2022,07,26,08,12,24.10
2022,07,26,08,13,24.20
2022,07,26,08,14,24.30
2022,07,26,08,15,24.30
2022,07,26,08,16,24.40
2022,07,26,08,17,24.40
2022,07,26,08,18,24.50
2022,07,26,08,19,24.50
2022,07,26,08,20,24.60
2022,07,26,08,21,24.60
2022,07,26,08,22,24.70
2022,07,26,08,23,24.80
2022,07,26,08,24,24.80
2022,07,26,08,25,24.80
2022,07,26,08,26,24.80
2022,07,26,08,27,24.80
2022,07,26,08,28,24.90
2022,07,26,08,29,24.90
2022,07,26,08,30,24.90
2022,07,26,08,31,24.90
2022,07,26,08,32,24.90
2022,07,26,08,33,25.00
2022,07,26,08,34,25.00
2022,07,26,08,35,25.10
2022,07,26,08,36,25.10
2022,07,26,08,37,25.20
2022,07,26,08,38,25.10
2022,07,26,08,39,25.10
2022,07,26,08,40,25.10
2022,07,26,08,41,25.10
2022,07,26,08,42,25.10
2022,07,26,08,43,25.10
2022,07,26,08,44,25.00
2022,07,26,08,45,25.00
2022,07,26,08,46,25.00
2022,07,26,08,47,25.00
2022,07,26,08,48,24.90
2022,07,26,08,49,24.90
2022,07,26,08,50,24.90
2022,07,26,08,51,24.90
2022,07,26,08,52,24.90
2022,07,26,08,53,24.90
2022,07,26,08,54,25.00
2022,07,26,08,55,25.00
2022,07,26,08,56,25.10
2022,07,26,08,57,25.10
2022,07,26,08,58,25.10
2022,07,26,08,59,25.20
2022,07,26,09,00,25.20
2022,07,26,09,01,25.20
2022,07,26,09,02,25.20
2022,07,26,09,03,25.30
2022,07,26,09,04,25.30
2022,07,26,09,05,25.30
2022,07,26,09,06,25.30
2022,07,26,09,07,25.30
2022,07,26,09,08,25.30
2022,07,26,09,09,25.40
2022,07,26,09,10,25.40
2022,07,26,09,11,25.40
2022,07,26,09,12,25.50
2022,07,26,09,13,25.50
2022,07,26,09,14,25.60
2022,07,26,09,15,25.60
2022,07,26,09,16,25.60
2022,07,26,09,17,25.70
2022,07,26,09,18,25.70
2022,07,26,09,19,25.70
2022,07,26,09,20,25.80
2022,07,26,09,21,25.80
2022,07,26,09,22,25.90
2022,07,26,09,23,26.00
2022,07,26,09,24,26.00
2022,07,26,09,25,26.10
2022,07,26,09,26,26.10
2022,07,26,09,27,26.20
2022,07,26,09,28,26.30
2022,07,26,09,29,26.30
2022,07,26,09,30,26.40
2022,07,26,09,31,26.40
2022,07,26,09,32,26.40
2022,07,26,09,33,26.50
2022,07,26,09,34,26.50
2022,07,26,09,35,26.60
2022,07,26,09,36,26.60
2022,07,26,09,37,26.70
2022,07,26,09,38,26.70
2022,07,26,09,39,26.80
2022,07,26,09,40,26.80
2022,07,26,09,41,26.80
2022,07,26,09,42,26.80
2022,07,26,09,43,26.80
2022,07,26,09,44,26.80
2022,07,26,09,45,26.80
2022,07,26,09,46,26.80
2022,07,26,09,47,26.80
2022,07,26,09,48,26.80
2022,07,26,09,49,26.80
2022,07,26,09,50,26.80
2022,07,26,09,51,26.70
2022,07,26,09,52,26.60
2022,07,26,09,53,26.60
2022,07,26,09,54,26.60
2022,07,26,09,55,26.60
2022,07,26,09,56,26.60
2022,07,26,09,57,26.70
2022,07,26,09,58,26.80
2022,07,26,09,59,26.90
2022,07,26,10,00,27.00
2022,07,26,10,01,27.10
2022,07,26,10,02,27.10
2022,07,26,10,03,27.20
2022,07,26,10,04,27.20
2022,07,26,10,05,27.20
2022,07,26,10,06,27.20
2022,07,26,10,07,27.20
2022,07,26,10,08,27.20
2022,07,26,10,09,27.30
2022,07,26,10,10,27.30
2022,07,26,10,11,27.30
2022,07,26,10,12,27.40
2022,07,26,10,13,27.40
2022,07,26,10,14,27.40
2022,07,26,10,15,27.40
2022,07,26,10,16,27.50
2022,07,26,10,17,27.50
2022,07,26,10,18,27.60
2022,07,26,10,19,27.60
2022,07,26,10,20,27.60
2022,07,26,10,21,27.60
2022,07,26,10,22,27.50
2022,07,26,10,23,27.50
2022,07,26,10,24,27.40
2022,07,26,10,25,27.30
2022,07,26,10,26,27.30
2022,07,26,10,27,27.20
2022,07,26,10,28,27.20
2022,07,26,10,29,27.20
2022,07,26,10,30,27.20
2022,07,26,10,31,27.20
2022,07,26,10,32,27.20
2022,07,26,10,33,27.20
2022,07,26,10,34,27.20
2022,07,26,10,35,27.30
2022,07,26,10,36,27.30
2022,07,26,10,37,27.30
2022,07,26,10,38,27.30
2022,07,26,10,39,27.30
2022,07,26,10,40,27.40
2022,07,26,10,41,27.50
2022,07,26,10,42,27.70
2022,07,26,10,43,27.80
2022,07,26,10,44,27.90
2022,07,26,10,45,28.00
2022,07,26,10,46,28.10
2022,07,26,10,47,28.10
2022,07,26,10,48,28.10
2022,07,26,10,49,28.00
2022,07,26,10,50,28.00
2022,07,26,10,51,28.10
2022,07,26,10,52,28.00
2022,07,26,10,53,28.10
2022,07,26,10,54,28.10
2022,07,26,10,55,28.20
2022,07,26,10,56,28.20
2022,07,26,10,57,28.20
2022,07,26,10,58,28.10
2022,07,26,10,59,28.10
2022,07,26,11,00,28.10
2022,07,26,11,01,28.10
2022,07,26,11,02,28.10
2022,07,26,11,03,28.10
2022,07,26,11,04,28.20
2022,07,26,11,05,28.30
2022,07,26,11,06,28.30
2022,07,26,11,07,28.30
2022,07,26,11,08,28.20
2022,07,26,11,09,28.20
2022,07,26,11,10,28.20
2022,07,26,11,11,28.20
2022,07,26,11,12,28.10
2022,07,26,11,13,28.00
2022,07,26,11,14,28.00
2022,07,26,11,15,28.00
2022,07,26,11,16,28.00
2022,07,26,11,17,28.00
2022,07,26,11,18,28.00
2022,07,26,11,19,28.00
2022,07,26,11,20,28.10
2022,07,26,11,21,28.10
2022,07,26,11,22,28.20
2022,07,26,11,23,28.40
2022,07,26,11,24,28.50
2022,07,26,11,25,28.70
2022,07,26,11,26,28.80
2022,07,26,11,27,28.90
2022,07,26,11,28,28.80
2022,07,26,11,29,28.90
2022,07,26,11,30,29.00
2022,07,26,11,31,29.10
2022,07,26,11,32,29.20
2022,07,26,11,33,29.20
2022,07,26,11,34,29.20
2022,07,26,11,35,29.20
2022,07,26,11,36,29.30
2022,07,26,11,37,29.30
2022,07,26,11,38,29.30
2022,07,26,11,39,29.30
2022,07,26,11,40,29.30
2022,07,26,11,41,29.30
2022,07,26,11,42,29.30
2022,07,26,11,43,29.40
2022,07,26,11,44,29.50
2022,07,26,11,45,29.60
2022,07,26,11,46,29.60
2022,07,26,11,47,29.60
2022,07,26,11,48,29.50
2022,07,26,11,49,29.50
2022,07,26,11,50,29.40
2022,07,26,11,51,29.40
2022,07,26,11,52,29.40
2022,07,26,11,53,29.40
2022,07,26,11,54,29.40
2022,07,26,11,55,29.40
2022,07,26,11,56,29.40
2022,07,26,11,57,29.40
2022,07,26,11,58,29.50
2022,07,26,11,59,29.50
2022,07,26,12,00,29.60
2022,07,26,12,01,29.60
2022,07,26,12,02,29.60
2022,07,26,12,03,29.50
2022,07,26,12,04,29.40
2022,07,26,12,05,29.40
2022,07,26,12,06,29.40
2022,07,26,12,07,29.40
2022,07,26,12,08,29.40
2022,07,26,12,09,29.50
2022,07,26,12,10,29.50
2022,07,26,12,11,29.60
2022,07,26,12,12,29.60
2022,07,26,12,13,29.60
2022,07,26,12,14,29.50
2022,07,26,12,15,29.50
2022,07,26,12,16,29.50
2022,07,26,12,17,29.50
2022,07,26,12,18,29.50
2022,07,26,12,19,29.40
2022,07,26,12,20,29.40
2022,07,26,12,21,29.30
2022,07,26,12,22,29.20
2022,07,26,12,23,29.20
2022,07,26,12,24,29.20
2022,07,26,12,25,29.10
2022,07,26,12,26,29.10
2022,07,26,12,27,29.10
2022,07,26,12,28,29.20
2022,07,26,12,29,29.20
2022,07,26,12,30,29.20
2022,07,26,12,31,29.30
2022,07,26,12,32,29.20
2022,07,26,12,33,29.20
2022,07,26,12,34,29.10
2022,07,26,12,35,29.00
2022,07,26,12,36,28.90
2022,07,26,12,37,28.90
2022,07,26,12,38,28.90
2022,07,26,12,39,29.00
2022,07,26,12,40,29.10
2022,07,26,12,41,29.20
2022,07,26,12,42,29.20
2022,07,26,12,43,29.30
2022,07,26,12,44,29.50
2022,07,26,12,45,29.60
2022,07,26,12,46,29.80
2022,07,26,12,47,29.80
2022,07,26,12,48,29.70
2022,07,26,12,49,29.60
2022,07,26,12,50,29.50
2022,07,26,12,51,29.40
2022,07,26,12,52,29.20
2022,07,26,12,53,29.10
2022,07,26,12,54,29.10
2022,07,26,12,55,29.00
2022,07,26,12,56,29.00
2022,07,26,12,57,28.90
2022,07,26,12,58,28.80
2022,07,26,12,59,28.80
2022,07,26,13,00,28.90
2022,07,26,13,01,28.90
2022,07,26,13,02,28.90
2022,07,26,13,03,28.90
2022,07,26,13,04,28.90
2022,07,26,13,05,28.90
2022,07,26,13,06,29.00
2022,07,26,13,07,29.10
2022,07,26,13,08,29.30
2022,07,26,13,09,29.40
2022,07,26,13,10,29.50
2022,07,26,13,11,29.60
2022,07,26,13,12,29.70
2022,07,26,13,13,29.80
2022,07,26,13,14,29.80
2022,07,26,13,15,29.90
2022,07,26,13,16,29.90
2022,07,26,13,17,30.00
2022,07,26,13,18,30.10
2022,07,26,13,19,30.20
2022,07,26,13,20,30.20
2022,07,26,13,21,30.30
2022,07,26,13,22,30.40
2022,07,26,13,23,30.40
2022,07,26,13,24,30.30
2022,07,26,13,25,30.30
2022,07,26,13,26,30.10
2022,07,26,13,27,30.00
2022,07,26,13,28,30.00
2022,07,26,13,29,30.00
2022,07,26,13,30,30.00
2022,07,26,13,31,30.00
2022,07,26,13,32,30.00
2022,07,26,13,33,30.20
2022,07,26,13,34,30.30
2022,07,26,13,35,30.30
2022,07,26,13,36,30.20
2022,07,26,13,37,30.10
2022,07,26,13,38,30.00
2022,07,26,13,39,29.90
2022,07,26,13,40,29.80
2022,07,26,13,41,29.80
2022,07,26,13,42,29.90
2022,07,26,13,43,30.10
2022,07,26,13,44,30.20
2022,07,26,13,45,30.40
2022,07,26,13,46,30.60
2022,07,26,13,47,30.70
2022,07,26,13,48,30.90
2022,07,26,13,49,31.10
2022,07,26,13,50,31.20
2022,07,26,13,51,31.30
2022,07,26,13,52,31.40
2022,07,26,13,53,31.50
2022,07,26,13,54,31.60
2022,07,26,13,55,31.60
2022,07,26,13,56,31.50
2022,07,26,13,57,31.50
2022,07,26,13,58,31.60
2022,07,26,13,59,31.70
2022,07,26,14,00,31.80
2022,07,26,14,01,31.80
2022,07,26,14,02,31.80
2022,07,26,14,03,31.80
2022,07,26,14,04,31.60
2022,07,26,14,05,31.50
2022,07,26,14,06,31.40
2022,07,26,14,07,31.40
2022,07,26,14,08,31.30
2022,07,26,14,09,31.30
2022,07,26,14,10,31.30
2022,07,26,14,11,31.30
2022,07,26,14,12,31.20
2022,07,26,14,13,31.20
2022,07,26,14,14,31.20
2022,07,26,14,15,31.20
2022,07,26,14,16,31.20
2022,07,26,14,17,31.10
2022,07,26,14,18,31.10
2022,07,26,14,19,31.10
2022,07,26,14,20,31.20
2022,07,26,14,21,31.20
2022,07,26,14,22,31.20
2022,07,26,14,23,31.20
2022,07,26,14,24,31.20
2022,07,26,14,25,31.20
2022,07,26,14,26,31.20
2022,07,26,14,27,31.20
2022,07,26,14,28,31.30
2022,07,26,14,29,31.40
2022,07,26,14,30,31.40
2022,07,26,14,31,31.50
2022,07,26,14,32,31.50
2022,07,26,14,33,31.50
2022,07,26,14,34,31.50
2022,07,26,14,35,31.50
2022,07,26,14,36,31.50
2022,07,26,14,37,31.60
2022,07,26,14,38,31.60
2022,07,26,14,39,31.70
2022,07,26,14,40,31.70
2022,07,26,14,41,31.70
2022,07,26,14,42,31.80
2022,07,26,14,43,31.80
2022,07,26,14,44,31.90
2022,07,26,14,45,31.90
2022,07,26,14,46,31.90
2022,07,26,14,47,31.90
2022,07,26,14,48,32.00
2022,07,26,14,49,32.00
2022,07,26,14,50,32.10
2022,07,26,14,51,32.20
2022,07,26,14,52,32.20
2022,07,26,14,53,32.30
2022,07,26,14,54,32.30
2022,07,26,14,55,32.50
2022,07,26,14,56,32.60
2022,07,26,14,57,32.60
2022,07,26,14,58,32.50
2022,07,26,14,59,32.50
2022,07,26,15,00,32.40
2022,07,26,15,01,32.20
2022,07,26,15,02,32.00
2022,07,26,15,03,31.80
2022,07,26,15,04,31.70
2022,07,26,15,05,31.70
2022,07,26,15,06,31.70
2022,07,26,15,07,31.70
2022,07,26,15,08,31.80
2022,07,26,15,09,31.80
2022,07,26,15,10,31.80
2022,07,26,15,11,31.80
2022,07,26,15,12,31.80
2022,07,26,15,13,31.90
2022,07,26,15,14,32.00
2022,07,26,15,15,32.10
2022,07,26,15,16,32.20
2022,07,26,15,17,32.30
2022,07,26,15,18,32.40
2022,07,26,15,19,32.50
2022,07,26,15,20,32.60
2022,07,26,15,21,32.80
2022,07,26,15,22,32.80
2022,07,26,15,23,32.80
2022,07,26,15,24,32.80
2022,07,26,15,25,32.70
2022,07,26,15,26,32.60
2022,07,26,15,27,32.60
2022,07,26,15,28,32.50
2022,07,26,15,29,32.30
2022,07,26,15,30,32.20
2022,07,26,15,31,32.10
2022,07,26,15,32,32.10
2022,07,26,15,33,32.00
2022,07,26,15,34,31.90
2022,07,26,15,35,31.90
2022,07,26,15,36,31.80
2022,07,26,15,37,31.90
2022,07,26,15,38,32.00
2022,07,26,15,39,32.10
2022,07,26,15,40,32.30
2022,07,26,15,41,32.40
2022,07,26,15,42,32.50
2022,07,26,15,43,32.50
2022,07,26,15,44,32.40
2022,07,26,15,45,32.40
2022,07,26,15,46,32.40
2022,07,26,15,47,32.50
2022,07,26,15,48,32.50
2022,07,26,15,49,32.50
2022,07,26,15,50,32.50
2022,07,26,15,51,32.60
2022,07,26,15,52,32.70
2022,07,26,15,53,32.90
2022,07,26,15,54,33.00
2022,07,26,15,55,33.20
2022,07,26,15,56,33.30
2022,07,26,15,57,33.40
2022,07,26,15,58,33.40
2022,07,26,15,59,33.40
2022,07,26,16,00,33.40
2022,07,26,16,01,33.40
2022,07,26,16,02,33.40
2022,07,26,16,03,33.40
2022,07,26,16,04,33.40
2022,07,26,16,05,33.40
2022,07,26,16,06,33.50
2022,07,26,16,07,33.60
2022,07,26,16,08,33.60
2022,07,26,16,09,33.60
2022,07,26,16,10,33.70
2022,07,26,16,11,33.70
2022,07,26,16,12,33.60
2022,07,26,16,13,33.60
2022,07,26,16,14,33.50
2022,07,26,16,15,33.50
2022,07,26,16,16,33.50
2022,07,26,16,17,33.60
2022,07,26,16,18,33.50
2022,07,26,16,19,33.50
2022,07,26,16,20,33.40
2022,07,26,16,21,33.30
2022,07,26,16,22,33.30
2022,07,26,16,23,33.30
2022,07,26,16,24,33.20
2022,07,26,16,25,33.10
2022,07,26,16,26,33.00
2022,07,26,16,27,32.80
2022,07,26,16,28,32.60
2022,07,26,16,29,32.50
2022,07,26,16,30,32.40
2022,07,26,16,31,32.30
2022,07,26,16,32,32.30
2022,07,26,16,33,32.30
2022,07,26,16,34,32.40
2022,07,26,16,35,32.40
2022,07,26,16,36,32.40
2022,07,26,16,37,32.40
2022,07,26,16,38,32.50
2022,07,26,16,39,32.70
2022,07,26,16,40,32.70
2022,07,26,16,41,32.80
2022,07,26,16,42,32.90
2022,07,26,16,43,33.00
2022,07,26,16,44,33.10
2022,07,26,16,45,33.20
2022,07,26,16,46,33.40
2022,07,26,16,47,33.50
2022,07,26,16,48,33.70
2022,07,26,16,49,33.80
2022,07,26,16,50,33.80
2022,07,26,16,51,33.90
2022,07,26,16,52,33.90
2022,07,26,16,53,34.00
2022,07,26,16,54,34.10
2022,07,26,16,55,34.10
2022,07,26,16,56,34.00
2022,07,26,16,57,33.90
2022,07,26,16,58,33.80
2022,07,26,16,59,33.60
2022,07,26,17,00,33.40
2022,07,26,17,01,33.30
2022,07,26,17,02,33.20
2022,07,26,17,03,33.00
2022,07,26,17,04,32.90
2022,07,26,17,05,32.70
2022,07,26,17,06,32.60
2022,07,26,17,07,32.60
2022,07,26,17,08,32.60
2022,07,26,17,09,32.60
2022,07,26,17,10,32.60
2022,07,26,17,11,32.60
2022,07,26,17,12,32.60
2022,07,26,17,13,32.50
2022,07,26,17,14,32.40
2022,07,26,17,15,32.20
2022,07,26,17,16,32.10
2022,07,26,17,17,32.00
2022,07,26,17,18,31.90
2022,07,26,17,19,31.80
2022,07,26,17,20,31.70
2022,07,26,17,21,31.60
2022,07,26,17,22,31.50